TimeCDT,TemperatureF,Dew PointF,Humidity,Sea Level PressureIn,VisibilityMPH,Wind Direction,Wind SpeedMPH,Gust SpeedMPH,PrecipitationIn,Events,Conditions,WindDirDegrees,DateUTC
12:14 AM,55.4,46.4,72,30.09,10.0,South,5.8,-,N/A,,Clear,170,2013-09-14 05:14:00
12:34 AM,53.6,46.4,77,30.09,10.0,South,4.6,-,N/A,,Clear,190,2013-09-14 05:34:00
12:54 AM,53.6,46.4,77,30.08,10.0,South,4.6,-,N/A,,Clear,180,2013-09-14 05:54:00
1:14 AM,53.6,46.4,77,30.09,10.0,South,4.6,-,N/A,,Clear,170,2013-09-14 06:14:00
1:34 AM,51.8,46.4,82,30.09,10.0,South,3.5,-,N/A,,Clear,170,2013-09-14 06:34:00
1:54 AM,51.8,44.6,76,30.08,10.0,SSE,4.6,-,N/A,,Clear,160,2013-09-14 06:54:00
2:14 AM,51.8,46.4,82,30.09,10.0,South,3.5,-,N/A,,Clear,180,2013-09-14 07:14:00
2:34 AM,53.6,46.4,77,30.08,10.0,SSE,3.5,-,N/A,,Clear,150,2013-09-14 07:34:00
2:54 AM,51.8,46.4,82,30.08,10.0,South,3.5,-,N/A,,Clear,170,2013-09-14 07:54:00
3:14 AM,51.8,44.6,76,30.08,10.0,SSE,4.6,-,N/A,,Clear,150,2013-09-14 08:14:00
3:34 AM,48.2,44.6,87,30.07,10.0,SSE,4.6,-,N/A,,Clear,160,2013-09-14 08:34:00
3:54 AM,50.0,44.6,82,30.07,10.0,South,5.8,-,N/A,,Clear,170,2013-09-14 08:54:00
4:14 AM,50.0,44.6,82,30.06,10.0,South,4.6,-,N/A,,Clear,170,2013-09-14 09:14:00
4:34 AM,48.2,44.6,87,30.06,10.0,South,5.8,-,N/A,,Clear,170,2013-09-14 09:34:00
4:54 AM,48.2,44.6,87,30.06,10.0,South,4.6,-,N/A,,Clear,180,2013-09-14 09:54:00
5:14 AM,48.2,44.6,87,30.06,10.0,South,5.8,-,N/A,,Clear,180,2013-09-14 10:14:00
5:34 AM,48.2,44.6,87,30.06,10.0,South,5.8,-,N/A,,Clear,170,2013-09-14 10:34:00
5:54 AM,48.2,44.6,87,30.06,10.0,South,4.6,-,N/A,,Clear,170,2013-09-14 10:54:00
6:13 AM,48.2,44.6,87,30.06,10.0,South,5.8,-,N/A,,Clear,170,2013-09-14 11:13:00
6:34 AM,50.0,44.6,82,30.06,10.0,South,4.6,-,N/A,,Clear,180,2013-09-14 11:34:00
6:45 AM,50.0,44.6,82,30.06,10.0,South,4.6,-,N/A,,Scattered Clouds,180,2013-09-14 11:45:00
6:54 AM,50.0,44.6,82,30.06,10.0,SSE,4.6,-,N/A,,Clear,160,2013-09-14 11:54:00
7:50 AM,51.8,48.2,88,30.06,10.0,South,4.6,-,N/A,,Mostly Cloudy,170,2013-09-14 12:50:00
8:45 AM,57.2,48.2,72,30.04,10.0,South,9.2,-,N/A,,Mostly Cloudy,180,2013-09-14 13:45:00
10:55 AM,64.4,44.6,49,30.03,10.0,SSW,13.8,-,N/A,,Mostly Cloudy,200,2013-09-14 15:55:00
11:45 AM,71.6,46.4,41,30.00,10.0,SSW,9.2,-,N/A,,Mostly Cloudy,210,2013-09-14 16:45:00
12:45 PM,73.4,48.2,41,29.98,10.0,SSW,11.5,18.4,N/A,,Mostly Cloudy,200,2013-09-14 17:45:00
1:45 PM,71.6,46.4,41,29.96,10.0,SSW,9.2,17.3,N/A,,Mostly Cloudy,200,2013-09-14 18:45:00
2:50 PM,71.6,46.4,41,29.95,10.0,SSW,11.5,-,N/A,,Mostly Cloudy,200,2013-09-14 19:50:00
3:45 PM,71.6,46.4,41,29.94,10.0,South,9.2,-,N/A,,Mostly Cloudy,190,2013-09-14 20:45:00
4:45 PM,64.4,57.2,77,29.94,10.0,Calm,Calm,-,N/A,,Mostly Cloudy,0,2013-09-14 21:45:00
5:45 PM,62.6,57.2,82,29.91,7.0,SE,5.8,-,N/A,Rain,Light Rain,140,2013-09-14 22:45:00
6:50 PM,62.6,57.2,82,29.94,7.0,Calm,Calm,-,N/A,Rain,Rain,0,2013-09-14 23:50:00
7:50 PM,60.8,57.2,88,29.96,7.0,ENE,4.6,-,N/A,Rain,Rain,70,2013-09-15 00:50:00
8:45 PM,57.2,57.2,100,29.96,7.0,East,4.6,-,N/A,Rain,Rain,80,2013-09-15 01:45:00
9:14 PM,59.0,57.2,94,29.95,10.0,East,6.9,-,0.02,,Light Drizzle,90,2013-09-15 02:14:00
9:34 PM,57.2,57.2,100,29.95,7.0,East,6.9,-,0.02,,Light Drizzle,90,2013-09-15 02:34:00
9:45 PM,57.2,57.2,100,29.94,7.0,ESE,9.2,-,N/A,,Light Drizzle,110,2013-09-15 02:45:00
9:53 PM,57.2,57.2,100,29.94,7.0,East,6.9,-,0.03,,Drizzle,100,2013-09-15 02:53:00
10:14 PM,57.2,57.2,100,29.93,7.0,ESE,11.5,-,N/A,,Light Drizzle,110,2013-09-15 03:14:00
10:34 PM,57.2,55.4,94,29.93,10.0,ESE,9.2,-,N/A,,Overcast,110,2013-09-15 03:34:00
10:53 PM,57.2,55.4,94,29.93,5.0,ESE,6.9,-,N/A,,Light Drizzle,110,2013-09-15 03:53:00
11:14 PM,57.2,55.4,94,29.93,4.0,ESE,8.1,-,0.01,,Light Drizzle,110,2013-09-15 04:14:00
11:34 PM,57.2,55.4,94,29.92,4.0,ESE,10.4,-,0.01,,Light Drizzle,120,2013-09-15 04:34:00
11:53 PM,57.2,55.4,94,29.91,7.0,ESE,9.2,-,0.01,,Light Drizzle,110,2013-09-15 04:53:00